Orbital Elements at Epoch 2459200.5 (2020-Dec-17.0) TDB
Reference: JPL 26 (heliocentric ecliptic J2000)
Element | Value | Uncertainty (1-sigma) | Units |
e | .06724780476072209 | 4.2873e-08 | |
a | 2.965620529149941 | 2.1581e-08 | au |
q | 2.766189058811277 | 1.2784e-07 | au |
i | 1.545568762565284 | 4.8758e-06 | deg |
node | 329.627923697412 | 0.00017092 | deg |
peri | 18.17010647088619 | 0.00017461 | deg |
M | 197.9932772015049 | 3.736e-05 | deg |
tp | 2460039.964494171155 (2023-Apr-05.46449417) | 0.00019632 | TDB |
period | 1865.399241965427 5.11 | 2.0362e-05 5.575e-08 | d yr |
n | .1929881774909996 | 2.1066e-09 | deg/d |
Q | 3.165051999488606 | 2.3032e-08 | au |
|
| | Orbit Determination Parameters
Additional Information
|